WetterOnline ( https://www.wetteronline.de )

Wetter aktuell Ceska Kamenice

Aktuelles Wetter: Usti Nad Labem (378m)

6-stündlich | Neueste Meldungen
Ortszeit Temperatur Wetter
Sa, 11.07. 8:00 11.7° C bewölkt
Sa, 11.07. 2:00 13.5° C bedeckt
Fr, 10.07. 20:00 22.3° C wolkig
Fr, 10.07. 14:00 24.4° C wolkig
Fr, 10.07. 8:00 17.6° C wolkig
Fr, 10.07. 2:00 18.2° C leicht bewölkt
Do, 09.07. 20:00 20.6° C wolkig
Do, 09.07. 14:00 15.2° C leichter Regen
Ortszeit Temperatur Wetter
Sa, 11.07. 13:00 15.6° C bewölkt
Sa, 11.07. 12:00 14.5° C bewölkt
Sa, 11.07. 11:00 13.4° C bewölkt
Sa, 11.07. 10:00 12.6° C bewölkt
Sa, 11.07. 9:00 12.0° C bewölkt
Sa, 11.07. 8:00 11.7° C bewölkt
Ortszeit Relative Feuchte Sichtweite
Sa, 11.07. 8:00 78% 70 km
Sa, 11.07. 2:00 75% 35 km
Fr, 10.07. 20:00 48% >70 km
Fr, 10.07. 14:00 63% 65 km
Fr, 10.07. 8:00 86% 40 km
Fr, 10.07. 2:00 80% 35 km
Do, 09.07. 20:00 78% 70 km
Do, 09.07. 14:00 94% 5.0 km
Ortszeit Relative Feuchte Sichtweite
Sa, 11.07. 13:00 60% >70 km
Sa, 11.07. 12:00 65% 70 km
Sa, 11.07. 11:00 71% >70 km
Sa, 11.07. 10:00 74% >70 km
Sa, 11.07. 9:00 77% 70 km
Sa, 11.07. 8:00 78% 70 km
Ortszeit Niederschlagsmenge Niederschlagsart
Sa, 11.07. 8:00 0.0 l/m2 in 12 Std. -
Sa, 11.07. 2:00 0.0 l/m2 in 6 Std. -
Fr, 10.07. 20:00 0.0 l/m2 in 12 Std. -
Fr, 10.07. 14:00 0.0 l/m2 in 6 Std. -
Fr, 10.07. 8:00 0.0 l/m2 in 12 Std. -
Fr, 10.07. 2:00 0.0 l/m2 in 6 Std. -
Do, 09.07. 20:00 0.6 l/m2 in 12 Std. -
Do, 09.07. 14:00 0.6 l/m2 in 6 Std. Regen
Ortszeit Niederschlagsmenge Niederschlagsart
Sa, 11.07. 13:00 0.0 l/m2 in 1 Std. -
Sa, 11.07. 12:00 0.0 l/m2 in 1 Std. -
Sa, 11.07. 11:00 0.0 l/m2 in 1 Std. -
Sa, 11.07. 10:00 0.0 l/m2 in 1 Std. -
Sa, 11.07. 9:00 0.0 l/m2 in 1 Std. -
Sa, 11.07. 8:00 0.0 l/m2 in 1 Std. -
Ortszeit Stärke Spitze Richtung
km/h Bft. km/h Grad Sektor
Sa, 11.07. 8:00 18 3 - 360° N
Sa, 11.07. 2:00 14 3 61 350° N
Fr, 10.07. 20:00 22 4 47 300° NW
Fr, 10.07. 14:00 7 2 - 290° W
Fr, 10.07. 8:00 4 1 - - -
Fr, 10.07. 2:00 7 2 - 130° SO
Do, 09.07. 20:00 4 1 - uml. uml.
Do, 09.07. 14:00 4 1 - - -
Ortszeit Stärke Spitze Richtung
km/h Bft. km/h Grad Sektor
Sa, 11.07. 13:00 11 2 - 340° N
Sa, 11.07. 12:00 11 2 - 330° NW
Sa, 11.07. 11:00 11 2 - 350° N
Sa, 11.07. 10:00 11 2 - 360° N
Sa, 11.07. 9:00 14 3 - 360° N
Sa, 11.07. 8:00 18 3 - 360° N
Ortszeit Untergrenze Bedeckung Gattung
total tief tief mittel hoch
Sa, 11.07. 8:00 660 m 8/8 2/8 Cu As -
Sa, 11.07. 2:00 1800 m - 8/8 - - -
Fr, 10.07. 20:00 1380 m 7/8 2/8 Cu Ac Ci
Fr, 10.07. 14:00 1320 m 7/8 2/8 Cu Ac Ci
Fr, 10.07. 8:00 3900 m 7/8 3/8 - As Cc
Fr, 10.07. 2:00 3300 m - 2/8 - - -
Do, 09.07. 20:00 750 m 7/8 1/8 Sc As Ci
Do, 09.07. 14:00 90 m 8/8 8/8 St - -
Ortszeit Bedeckungsgrad in Achtel und Wolkenuntergrenze
Sa, 11.07. 13:00 4(900m) 7(1440m)
Sa, 11.07. 12:00 3(750m) 6(2700m)
Sa, 11.07. 11:00 3(630m) 7(2400m)
Sa, 11.07. 10:00 5(540m) 7(2400m)
Sa, 11.07. 9:00 3(690m) 5(2700m) 8(4200m)
Sa, 11.07. 8:00 2(660m) 5(2700m) 8(4500m)
Ortszeit Luftdruck NN (hPa) Tendenz (hPa in 3 Std.)
Sa, 11.07. 8:00 1021 + 1,4
Sa, 11.07. 2:00 1019 + 2,5
Fr, 10.07. 20:00 1011 + 2,3
Fr, 10.07. 14:00 1008 - 1,2
Fr, 10.07. 8:00 1012 - 0,4
Fr, 10.07. 2:00 1013 - 0,3
Do, 09.07. 20:00 1012 - 1,4
Do, 09.07. 14:00 1016 - 0,9
Ortszeit Luftdruck NN (hPa) Tendenz (hPa in 3 Std.)
Sa, 11.07. 13:00 1022 + 0,7
Sa, 11.07. 12:00 1022 + 1,0
Sa, 11.07. 11:00 1022 + 1,6
Sa, 11.07. 10:00 1022 + 1,7
Sa, 11.07. 9:00 1022 + 1,8
Sa, 11.07. 8:00 1021 + 1,4
Ortszeit Schneehöhe (cm)
Sa, 11.07. 8:00 -
Sa, 11.07. 2:00 -
Fr, 10.07. 20:00 -
Fr, 10.07. 14:00 -
Fr, 10.07. 8:00 0
Fr, 10.07. 2:00 -
Do, 09.07. 20:00 -
Do, 09.07. 14:00 -
Ortszeit Schneehöhe (cm)
Sa, 11.07. 13:00 -
Sa, 11.07. 12:00 -
Sa, 11.07. 11:00 -
Sa, 11.07. 10:00 -
Sa, 11.07. 9:00 -
Sa, 11.07. 8:00 -
Link zu dieser Seite / Seite empfehlen

Das Wetter in ...